GOMX-4A (43197 NORAD) Tracking and Keplerian Element Data

This shows tracking and keplerian element data for the satellite.

Feedback or suggestion? Click here.




ElementValue
Catalog43197
NameGOMX-4A
Epoch Orbit20290
Epoch Day269.23688839
Epoch Year2021
RAAN42.6594
Inclination97.4985
Eccentricity0.0016857
Argument of Perigee266.6978
Mean Anonmoly213.1542
Mean Motion15.25762261
Decay Rate2.183E-05
L11 43197U 18015F 21269.23688839 .00002183 00000-0 88170-4 0 9998
L22 43197 97.4985 42.6594 0016857 266.6978 213.1542 15.25762261202907

Live tracking and technical data element details for GOMX-4A (NORAD 43197). GOMX-4A can be tracked NOW for your location showing map with azimuth and elevation plus other details from your city location.

Track the satellite on the map from your city or location and see movement details for azimuth, elevation, latitude, longitude, range, height, and movement on the map or in text.







IsCatalogInMostPopularTable: catalog: 43197, numindb: 544
Update: records affected: 1



GetName: 43197 GOMX-4A

Hit Count: updated at: Mon, 27 Sep 2021 00:48:20 GMT